TimeEDT,TemperatureF,Dew PointF,Humidity,Sea Level PressureIn,VisibilityMPH,Wind Direction,Wind SpeedMPH,Gust SpeedMPH,PrecipitationIn,Events,Conditions,WindDirDegrees,DateUTC
12:53 AM,59.0,57.0,93,29.99,10.0,North,3.5,-,N/A,,Overcast,10,2013-09-30 04:53:00
1:53 AM,59.0,57.9,96,29.99,5.0,NNE,3.5,-,N/A,,Overcast,30,2013-09-30 05:53:00
2:11 AM,59.0,57.2,94,29.99,2.0,NNE,3.5,-,N/A,,Overcast,20,2013-09-30 06:11:00
2:50 AM,59.0,57.2,94,29.99,1.5,Calm,Calm,-,N/A,,Overcast,0,2013-09-30 06:50:00
2:53 AM,59.0,57.9,96,29.99,1.2,Calm,Calm,-,N/A,,Overcast,0,2013-09-30 06:53:00
3:22 AM,59.0,57.2,94,29.98,2.0,Calm,Calm,-,N/A,,Overcast,0,2013-09-30 07:22:00
3:41 AM,59.0,57.2,94,29.98,1.2,Calm,Calm,-,N/A,,Overcast,0,2013-09-30 07:41:00
3:53 AM,59.0,57.9,96,29.98,1.2,Calm,Calm,-,N/A,,Overcast,0,2013-09-30 07:53:00
4:01 AM,59.0,57.2,94,29.98,1.5,Calm,Calm,-,N/A,,Overcast,0,2013-09-30 08:01:00
4:23 AM,59.0,57.2,94,29.98,1.2,Calm,Calm,-,N/A,,Overcast,0,2013-09-30 08:23:00
4:41 AM,59.0,57.2,94,29.98,1.5,West,3.5,-,0.01,,Overcast,260,2013-09-30 08:41:00
4:51 AM,57.2,57.2,100,29.98,3.0,West,3.5,-,0.01,,Overcast,280,2013-09-30 08:51:00
4:53 AM,57.9,57.9,100,29.98,4.0,West,3.5,-,0.01,,Overcast,280,2013-09-30 08:53:00
5:53 AM,57.9,55.9,93,29.99,8.0,NW,4.6,-,N/A,,Overcast,320,2013-09-30 09:53:00
6:53 AM,57.0,55.9,96,29.99,5.0,Calm,Calm,-,N/A,,Overcast,0,2013-09-30 10:53:00
7:06 AM,57.2,55.4,94,30.00,5.0,Calm,Calm,-,N/A,,Overcast,0,2013-09-30 11:06:00
7:53 AM,57.9,55.9,93,30.01,6.0,Calm,Calm,-,N/A,,Overcast,0,2013-09-30 11:53:00
8:24 AM,57.2,55.4,94,30.02,7.0,NW,4.6,-,N/A,,Overcast,310,2013-09-30 12:24:00
8:53 AM,57.9,55.9,93,30.02,9.0,WNW,5.8,-,N/A,,Overcast,300,2013-09-30 12:53:00
9:19 AM,57.2,55.4,94,30.02,10.0,West,4.6,-,N/A,,Overcast,270,2013-09-30 13:19:00
9:53 AM,59.0,55.9,90,30.02,10.0,West,5.8,-,N/A,,Overcast,280,2013-09-30 13:53:00
10:53 AM,61.0,55.0,81,30.02,10.0,Calm,Calm,-,N/A,,Overcast,0,2013-09-30 14:53:00
11:11 AM,60.8,55.4,82,30.02,10.0,Calm,Calm,-,N/A,,Mostly Cloudy,0,2013-09-30 15:11:00
11:50 AM,62.6,55.4,77,30.00,10.0,Calm,Calm,-,N/A,,Scattered Clouds,0,2013-09-30 15:50:00
11:53 AM,63.0,55.0,75,30.00,10.0,Calm,Calm,-,N/A,,Partly Cloudy,0,2013-09-30 15:53:00
12:53 PM,64.0,53.1,67,29.99,10.0,WNW,5.8,-,N/A,,Scattered Clouds,300,2013-09-30 16:53:00
1:29 PM,64.4,53.6,68,29.99,10.0,SW,3.5,132.3,N/A,,Squalls,220,2013-09-30 17:29:00
1:53 PM,66.9,53.1,61,29.97,10.0,SSW,5.8,-,N/A,,Clear,200,2013-09-30 17:53:00
2:53 PM,70.0,50.0,49,29.95,10.0,West,10.4,-,N/A,,Clear,260,2013-09-30 18:53:00
3:53 PM,70.0,52.0,53,29.94,10.0,SSW,10.4,18.4,N/A,,Scattered Clouds,200,2013-09-30 19:53:00
4:53 PM,69.1,53.1,57,29.93,10.0,WSW,8.1,-,N/A,,Partly Cloudy,240,2013-09-30 20:53:00
5:53 PM,69.1,53.1,57,29.94,10.0,SSW,9.2,-,N/A,,Mostly Cloudy,210,2013-09-30 21:53:00
6:53 PM,64.9,53.1,65,29.94,10.0,South,4.6,-,N/A,,Clear,180,2013-09-30 22:53:00
7:53 PM,57.0,54.0,89,29.95,10.0,Calm,Calm,-,N/A,,Clear,0,2013-09-30 23:53:00
8:53 PM,53.1,53.1,100,29.96,10.0,Calm,Calm,-,N/A,,Clear,0,2013-10-01 00:53:00
9:53 PM,51.1,50.0,96,29.97,5.0,Calm,Calm,-,N/A,,Clear,0,2013-10-01 01:53:00
9:57 PM,51.8,51.8,100,29.97,1.8,Calm,Calm,-,N/A,,Clear,0,2013-10-01 01:57:00
9:59 PM,51.8,51.8,100,29.97,0.8,Calm,Calm,-,N/A,,Clear,0,2013-10-01 01:59:00
10:18 PM,51.8,51.8,100,29.97,1.5,Calm,Calm,-,N/A,,Clear,0,2013-10-01 02:18:00
10:22 PM,53.6,51.8,94,29.97,3.0,Calm,Calm,-,N/A,,Clear,0,2013-10-01 02:22:00
10:29 PM,50.0,50.0,100,29.97,1.5,Calm,Calm,-,N/A,,Clear,0,2013-10-01 02:29:00
10:32 PM,50.0,50.0,100,29.97,0.8,Calm,Calm,-,N/A,,Clear,0,2013-10-01 02:32:00
10:48 PM,50.0,48.2,94,29.97,2.0,Calm,Calm,-,N/A,,Clear,0,2013-10-01 02:48:00
10:53 PM,51.1,51.1,100,29.97,7.0,Calm,Calm,-,N/A,,Clear,0,2013-10-01 02:53:00
10:56 PM,48.2,48.2,100,29.97,1.5,Calm,Calm,-,N/A,,Clear,0,2013-10-01 02:56:00
11:00 PM,50.0,48.2,94,29.96,0.8,Calm,Calm,-,N/A,,Clear,0,2013-10-01 03:00:00
11:26 PM,48.2,46.4,93,29.97,0.5,Calm,Calm,-,N/A,Fog,Fog,0,2013-10-01 03:26:00
11:53 PM,48.9,48.0,97,29.97,0.2,Calm,Calm,-,N/A,Fog,Fog,0,2013-10-01 03:53:00